Flag for China Weather past 2 weeks in Hohhot, Inner Mongolia, China

Now
64 °F

Clear.


Feels Like: 64 °F
Forecast: 58 / 92 °F
Wind: 3 mph from Northeast

Location: Hohhot Airport

Current Time: Jul 31, 2014 at 5:34:00 AM

Latest Report: Jul 31, 2014 at 5:00 AM


Visibility: 10 mi

Pressure: 29.86 "Hg

Humidity: 73%

Dew point: 55 °F

Location of HohhotLocation

Historic Weather in Hohhot — Graph

°F

Hohhot temperature yesterday

Maximum temperature yesterday: 88 °F (at 3:00 PM)
Minimum temperature yesterday: 55 °F (at 5:00 AM)
Average temperature yesterday: 73 °F

Past Weeks' High & Low Weather Summary

 TemperatureHumidityPressure
High93 °F (Jul 18, 4:00 PM)100% (Jul 22, 6:00 AM)30.01 "Hg (Jul 22, 6:00 AM)
Low55 °F (Jul 25, 5:00 AM)33% (Jul 17, 2:00 PM)29.65 "Hg (Jul 28, 6:00 PM)
Average74 °F65%29.85 "Hg
* Reported Jul 16 4:00 AM — Jul 31 4:00 AM, Hohhot, Weather by CustomWeather, © 2014

Note: Actual official high and low records may vary slightly from our data, if they occured in-between our weather recording intervals... More about our weather records

Advertising

Hohhot weather history for previous 24 hours

 ConditionsComfort  
Time TempWeatherWind HumidityBarometerVisibility
4:00 AM
Jul 31
64 °FClear.6 mph73%29.86 "Hg10 mi
3:00 AM64 °FClear.3 mph78%29.86 "Hg10 mi
2:00 AM64 °FClear.6 mph73%29.86 "Hg10 mi
1:00 AM66 °FClear.6 mph73%29.86 "Hg10 mi
12:00 AM68 °FClear.3 mph69%29.86 "Hg10 mi
11:00 PM
Jul 30
70 °FClear.6 mph69%29.83 "Hg10 mi
10:00 PM70 °FClear.8 mph69%29.83 "Hg10 mi
9:00 PM77 °FPassing clouds.6 mph57%29.80 "HgN/A
8:00 PM79 °FClear.1 mph61%29.77 "Hg10 mi
7:00 PM86 °FSunny.3 mph43%29.77 "Hg10 mi
6:00 PM88 °FSunny.8 mph33%29.77 "Hg10 mi
5:00 PM88 °FPassing clouds.8 mph38%29.77 "HgN/A
4:00 PM88 °FPassing clouds.8 mph40%29.77 "HgN/A
3:00 PM88 °FPassing clouds.6 mph38%29.77 "HgN/A
2:00 PM86 °FPassing clouds.6 mph38%29.80 "HgN/A
1:00 PM84 °FPassing clouds.3 mph43%29.80 "HgN/A
12:00 PM81 °FSunny.1 mph48%29.80 "Hg10 mi
11:00 AM79 °FSunny.1 mph51%29.83 "Hg10 mi
10:00 AM75 °FSunny.1 mph57%29.83 "Hg10 mi
9:00 AM72 °FSunny.1 mph61%29.83 "Hg10 mi
8:00 AM66 °FSunny.1 mph73%29.83 "Hg10 mi
7:00 AM61 °FSunny.3 mph83%29.83 "Hg10 mi
6:00 AM57 °FSunny.3 mph88%29.83 "Hg10 mi
5:00 AM55 °FClear.1 mph94%29.80 "Hg10 mi
Weather by CustomWeather, © 2014

See weather overviewHow to use our weather pages